Location: Unspecified
(43.7492°N, 0.0000°E)
Time: 11:45:07
(UTC+00:00)

Vanguard 2 - All Passes

Search period start: 04 April 2026 00:00
Search period end: 14 April 2026 00:00
Orbit: 554 x 2896 km, 32.9° (Epoch: 29 March)

Date Brightness Start Highest point End Pass type
(mag) Time Alt. Az. Time Alt. Az. Time Alt. Az.
4 Apr - 13:45:34 10° SSE 13:47:07 11° SE 13:48:48 10° SE daylight
4 Apr - 15:47:47 10° SW 15:53:43 34° SSE 16:02:51 10° E daylight
4 Apr - 17:53:57 10° WSW 18:01:58 45° S 18:14:40 10° ESE daylight
4 Apr - 20:01:40 10° W 20:11:23 36° SSW 20:25:06 10° SE visible
4 Apr - 22:12:31 10° WSW 22:21:04 19° SW 22:31:04 10° S visible
5 Apr - 13:55:23 10° S 13:58:26 15° SE 14:02:07 10° ESE daylight
5 Apr - 15:59:17 10° SW 16:05:17 37° SSE 16:14:40 10° ESE daylight
5 Apr - 18:05:43 10° WSW 18:13:40 43° S 18:26:09 10° ESE daylight
5 Apr - 20:13:44 10° WSW 20:23:03 31° SSW 20:35:53 10° SSE visible
5 Apr - 22:26:21 10° WSW 22:32:37 14° SW 22:39:34 10° SSW visible
6 Apr - 14:06:07 10° S 14:09:48 18° SSE 14:14:34 10° ESE daylight
6 Apr - 16:10:52 10° SW 16:16:54 38° S 16:26:24 10° ESE daylight
6 Apr - 18:17:32 10° WSW 18:25:22 40° S 18:37:31 10° SE daylight
6 Apr - 20:25:59 10° WSW 20:34:43 26° SSW 20:46:22 10° SSE visible
7 Apr - 14:17:12 10° SSW 14:21:14 22° SSE 14:26:43 10° ESE daylight
7 Apr - 16:22:31 10° WSW 16:28:32 39° S 16:38:04 10° ESE daylight
7 Apr - 18:29:25 10° WSW 18:37:05 36° SSW 18:48:44 10° SE daylight
7 Apr - 20:38:31 10° WSW 20:46:22 21° SSW 20:56:26 10° SSE visible
8 Apr - 14:28:29 10° SSW 14:32:44 25° SSE 14:38:41 10° ESE daylight
8 Apr - 16:34:13 10° WSW 16:40:13 38° S 16:49:40 10° ESE daylight
8 Apr - 18:41:23 10° WSW 18:48:48 31° SSW 18:59:45 10° SE visible
8 Apr - 20:51:33 10° WSW 20:58:01 16° SSW 21:05:50 10° S visible
9 Apr - 14:39:55 10° SW 14:44:17 28° SSE 14:50:31 10° ESE daylight
9 Apr - 16:45:58 10° WSW 16:51:55 36° S 17:01:09 10° ESE daylight
9 Apr - 18:53:28 10° WSW 19:00:31 27° SSW 19:10:32 10° SSE visible
9 Apr - 21:05:59 10° SW 21:09:40 12° SSW 21:13:45 10° SSW visible
10 Apr - 12:47:42 10° SSE 12:49:10 11° SSE 12:50:46 10° SE daylight
10 Apr - 14:51:27 10° SW 14:55:53 29° SSE 15:02:17 10° ESE daylight
10 Apr - 16:57:47 10° WSW 17:03:37 33° S 17:12:31 10° SE daylight
10 Apr - 19:05:48 10° WSW 19:12:14 22° SSW 19:20:58 10° SSE visible
11 Apr - 12:58:13 10° S 13:00:38 14° SSE 13:03:27 10° ESE daylight
11 Apr - 15:03:03 10° SW 15:07:32 30° S 15:13:57 10° ESE daylight
11 Apr - 17:09:40 10° WSW 17:15:20 29° S 17:23:44 10° SE daylight
11 Apr - 19:18:29 10° WSW 19:23:57 17° SSW 19:30:53 10° S visible
12 Apr - 13:09:16 10° SSW 13:12:09 17° SSE 13:15:36 10° ESE daylight
12 Apr - 15:14:45 10° WSW 15:19:11 29° S 15:25:33 10° ESE daylight
12 Apr - 17:21:41 10° WSW 17:27:03 25° SSW 17:34:45 10° SE daylight
12 Apr - 19:32:05 10° SW 19:35:39 12° SSW 19:39:48 10° S visible
13 Apr - 13:20:34 10° SSW 13:23:43 20° SSE 13:27:32 10° ESE daylight
13 Apr - 15:26:30 10° WSW 15:30:52 28° S 15:37:02 10° SE daylight
13 Apr - 17:33:52 10° WSW 17:38:46 20° SSW 17:45:28 10° SSE daylight
